WA6MEM Weather Reports


Display with metric or nautical units.
time (UTC)temp
F
wind
direction
speed
MPH
gust
MPH
rain 1hr
in
rain 24hr
in
rain mn
in
humidity
%
barometer
mb
20260901082031 59 240 0.0 0.0 0.00 0.00 0.00 96 1012.6
20260901081535 59 240 0.0 0.0 0.00 0.00 0.00 96 1012.6
20260901081031 59 240 0.0 0.0 0.00 0.00 0.00 96 1012.7
20260901080531 59 240 0.0 0.0 0.00 0.00 0.00 96 1012.7
20260901080031 59 190 0.0 0.0 0.00 0.00 0.00 96 1012.7
20260901075531 60 190 0.0 0.0 0.00 0.00 0.00 96 1012.6
20260901075030 60 190 1.0 0.0 0.00 0.00 0.00 95 1012.6
20260901074533 60 190 0.0 0.0 0.00 0.00 0.00 96 1012.6
20260901074028 60 287 0.0 0.0 0.00 0.00 0.00 96 1012.5
20260901073528 60 287 1.0 0.0 0.00 0.00 0.00 96 1012.5
20260901073028 60 309 1.0 0.0 0.00 0.00 0.00 96 1012.5
20260901072530 60 284 0.0 0.0 0.00 0.00 0.00 96 1012.5
20260901072026 60 284 0.0 0.0 0.00 0.00 0.00 96 1012.5
20260901071526 60 293 0.0 0.0 0.00 0.00 0.00 96 1012.5
20260901071028 60 204 0.0 0.0 0.00 0.00 0.00 96 1012.6
20260901070527 61 204 0.0 0.0 0.00 0.00 0.00 95 1012.6
20260901070029 61 162 0.0 0.0 0.00 0.00 0.00 96 1012.6
20260901065525 61 162 1.0 0.0 0.00 0.00 0.00 96 1012.5
20260901065029 61 178 1.0 0.0 0.00 0.00 0.00 96 1012.5
20260901064536 61 216 1.0 0.0 0.00 0.00 0.00 96 1012.5
20260901064024 61 168 1.0 0.0 0.00 0.00 0.00 96 1012.5
20260901063527 61 181 1.0 0.0 0.00 0.00 0.00 96 1012.5
20260901063028 61 155 1.0 0.0 0.00 0.00 0.00 96 1012.5
20260901062523 61 160 1.0 0.0 0.00 0.00 0.00 96 1012.1
20260901062028 61 196 1.0 0.0 0.00 0.00 0.00 96 1012.1
20260901061523 61 202 1.0 0.0 0.00 0.00 0.00 96 1012.1
20260901061023 61 205 1.0 0.0 0.00 0.00 0.00 95 1012.2
20260901060522 61 207 1.0 0.0 0.00 0.00 0.00 95 1012.2
20260901060022 61 195 1.0 0.0 0.00 0.00 0.00 95 1012.2
20260901055523 61 198 1.0 0.0 0.00 0.00 0.00 95 1012.2
20260901055021 61 195 1.0 0.0 0.00 0.00 0.00 95 1012.2
20260901054523 61 201 1.0 0.0 0.00 0.00 0.00 95 1012.2
20260901054022 61 234 1.0 0.0 0.00 0.00 0.00 95 1012.1
20260901053522 61 199 1.0 0.0 0.00 0.00 0.00 95 1012.1
20260901053020 61 227 2.0 0.0 0.00 0.00 0.00 95 1012.1
20260901052519 61 206 2.0 0.0 0.00 0.00 0.00 95 1012.1
20260901052019 61 208 2.0 0.0 0.00 0.00 0.00 95 1012.1
20260901051519 61 198 1.0 0.0 0.00 0.00 0.00 95 1012.1
20260901051019 61 211 1.0 0.0 0.00 0.00 0.00 95 1012.2
20260901050519 62 200 1.0 0.0 0.00 0.00 0.00 95 1012.2
20260901050020 62 263 2.0 0.0 0.00 0.00 0.00 95 1012.2
20260901045523 62 217 2.0 0.0 0.00 0.00 0.00 95 1012.2
20260901045018 61 279 1.0 0.0 0.00 0.00 0.00 95 1012.2
20260901044518 62 232 1.0 0.0 0.00 0.00 0.00 95 1012.2
20260901044018 62 199 1.0 0.0 0.00 0.00 0.00 95 1012.1
20260901043520 62 199 1.0 0.0 0.00 0.00 0.00 95 1012.1
20260901043019 62 200 1.0 0.0 0.00 0.00 0.00 95 1012.1
20260901042516 62 219 1.0 0.0 0.00 0.00 0.00 95 1012.0
20260901042016 62 252 1.0 0.0 0.00 0.00 0.00 95 1012.0
20260901041516 62 269 2.0 0.0 0.00 0.00 0.00 94 1012.0
20260901041016 62 232 2.0 0.0 0.00 0.00 0.00 94 1011.7
20260901040516 62 270 2.0 0.0 0.00 0.00 0.00 94 1011.7
20260901040016 62 267 4.0 0.0 0.00 0.00 0.00 94 1011.7
20260901035516 62 273 2.0 0.0 0.00 0.00 0.00 94 1011.6
20260901035015 62 275 1.0 0.0 0.00 0.00 0.00 94 1011.6
20260901034517 62 16 0.0 0.0 0.00 0.00 0.00 94 1011.6
20260901034016 62 15 1.0 0.0 0.00 0.00 0.00 93 1011.1
20260901033514 62 197 1.0 0.0 0.00 0.00 0.00 93 1011.1
20260901033014 62 232 1.0 0.0 0.00 0.00 0.00 93 1011.1
20260901032514 62 187 1.0 0.0 0.00 0.00 0.00 93 1011.0
20260901032014 62 271 2.0 0.0 0.00 0.00 0.00 93 1011.0
20260901031513 62 307 2.0 0.0 0.00 0.00 0.00 92 1011.0
20260901031013 62 318 1.0 0.0 0.00 0.00 0.00 92 1010.9
20260901030514 63 187 2.0 0.0 0.00 0.00 0.00 92 1010.9
20260901030013 63 179 2.0 0.0 0.00 0.00 0.00 92 1010.9
20260901025516 63 219 2.0 0.0 0.00 0.00 0.00 91 1010.7
20260901025013 63 143 3.0 0.0 0.00 0.00 0.00 90 1010.7
20260901024513 62 201 4.0 0.0 0.00 0.00 0.00 90 1010.7
20260901024015 62 209 4.0 0.0 0.00 0.00 0.00 90 1010.6
20260901023511 63 197 3.0 0.0 0.00 0.00 0.00 90 1010.6
20260901023026 63 203 3.0 0.0 0.00 0.00 0.00 90 1010.6
20260901022511 63 210 3.0 0.0 0.00 0.00 0.00 91 1010.7
20260901022012 63 273 3.0 0.0 0.00 0.00 0.00 90 1010.7
20260901021520 63 242 3.0 0.0 0.00 0.00 0.00 89 1010.7
20260901021011 64 245 3.0 0.0 0.00 0.00 0.00 89 1010.8
20260901020511 64 271 2.0 0.0 0.00 0.00 0.00 89 1010.8
20260901020011 64 159 3.0 0.0 0.00 0.00 0.00 88 1010.8
20260901015510 65 176 3.0 0.0 0.00 0.00 0.00 88 1010.7
20260901015010 65 171 3.0 0.0 0.00 0.00 0.00 87 1010.7
20260901014511 65 194 3.0 0.0 0.00 0.00 0.00 86 1010.7
20260901014011 66 178 3.0 0.0 0.00 0.00 0.00 85 1010.8
20260901013513 66 200 3.0 0.0 0.00 0.00 0.00 84 1010.8
20260901013010 67 188 2.0 0.0 0.00 0.00 0.00 84 1010.8
20260901012513 67 199 3.0 0.0 0.00 0.00 0.00 83 1010.8
20260901012013 68 219 4.0 0.0 0.00 0.00 0.00 82 1010.8
20260901011509 68 219 4.0 0.0 0.00 0.00 0.00 81 1010.8
20260901011011 69 159 3.0 0.0 0.00 0.00 0.00 81 1010.9
20260901010509 69 232 3.0 0.0 0.00 0.00 0.00 79 1010.9
20260901010010 69 232 4.0 0.0 0.00 0.00 0.00 80 1010.9
20260901005510 69 148 5.0 0.0 0.00 0.00 0.00 80 1010.9
20260901005009 69 209 6.0 0.0 0.00 0.00 0.00 77 1010.9
20260901004509 71 200 5.0 0.0 0.00 0.00 0.00 76 1010.9
20260901004009 71 175 4.0 0.0 0.00 0.00 0.00 74 1010.8
20260901003510 71 180 5.0 0.0 0.00 0.00 0.00 74 1010.8
20260901003008 71 165 5.0 0.0 0.00 0.00 0.00 70 1010.8
20260901002508 72 206 5.0 0.0 0.00 0.00 0.00 68 1010.9
20260901002009 72 222 5.0 0.0 0.00 0.00 0.00 66 1010.9
20260901001507 72 271 5.0 0.0 0.00 0.00 0.00 69 1010.9
20260901001007 72 216 5.0 0.0 0.00 0.00 0.00 70 1010.7
20260901000508 73 192 4.0 0.0 0.00 0.00 0.00 71 1010.7
20260901000008 73 224 4.0 0.0 0.00 0.00 0.00 74 1010.7
20260831235508 73 212 5.0 0.0 0.00 0.00 0.00 71 1011.0
20260831235008 74 219 4.0 0.0 0.00 0.00 0.00 72 1011.0
20260831234507 74 184 5.0 0.0 0.00 0.00 0.00 71 1011.0
20260831234008 74 200 5.0 0.0 0.00 0.00 0.00 67 1011.0
20260831233507 74 203 4.0 0.0 0.00 0.00 0.00 65 1011.0
20260831233011 75 173 3.0 0.0 0.00 0.00 0.00 66 1011.0
20260831232506 75 234 3.0 0.0 0.00 0.00 0.00 64 1010.8
20260831232006 75 186 3.0 0.0 0.00 0.00 0.00 67 1010.8
20260831231508 75 194 3.0 0.0 0.00 0.00 0.00 66 1010.8
20260831231006 75 197 2.0 0.0 0.00 0.00 0.00 69 1010.9
20260831230505 75 227 2.0 0.0 0.00 0.00 0.00 69 1010.9
20260831230005 75 196 3.0 0.0 0.00 0.00 0.00 71 1010.9
20260831225504 75 202 3.0 0.0 0.00 0.00 0.00 69 1011.0
20260831225004 75 155 3.0 0.0 0.00 0.00 0.00 70 1011.0
20260831224504 75 184 3.0 0.0 0.00 0.00 0.00 71 1011.0
20260831224004 75 224 3.0 0.0 0.00 0.00 0.00 70 1011.1
20260831223503 75 171 3.0 0.0 0.00 0.00 0.00 74 1011.1
20260831223002 74 191 3.0 0.0 0.00 0.00 0.00 72 1011.1
20260831222503 75 217 3.0 0.0 0.00 0.00 0.00 72 1011.3
20260831222002 75 196 4.0 0.0 0.00 0.00 0.00 72 1011.3
20260831221503 75 192 4.0 0.0 0.00 0.00 0.00 72 1011.3
20260831221002 75 211 4.0 0.0 0.00 0.00 0.00 71 1011.4
20260831220504 75 182 4.0 0.0 0.00 0.00 0.00 74 1011.4
20260831220002 74 205 4.0 0.0 0.00 0.00 0.00 73 1011.4
20260831215504 74 240 4.0 0.0 0.00 0.00 0.00 75 1011.7
20260831215002 75 205 4.0 0.0 0.00 0.00 0.00 73 1011.7
20260831214501 75 222 4.0 0.0 0.00 0.00 0.00 73 1011.7
20260831214000 74 175 3.0 0.0 0.00 0.00 0.00 74 1011.7
20260831213600 74 218 3.0 0.0 0.00 0.00 0.00 75 1011.7
20260831213100 74 160 3.0 0.0 0.00 0.00 0.00 77 1011.7
20260831212559 74 202 3.0 0.0 0.00 0.00 0.00 76 1011.8
20260831212059 74 202 4.0 0.0 0.00 0.00 0.00 75 1011.8
20260831211559 74 155 4.0 0.0 0.00 0.00 0.00 74 1011.8
20260831211057 73 207 4.0 0.0 0.00 0.00 0.00 76 1011.9
20260831210557 73 207 3.0 0.0 0.00 0.00 0.00 74 1011.9
20260831210058 73 209 4.0 0.0 0.00 0.00 0.00 74 1011.9
20260831205557 73 219 4.0 0.0 0.00 0.00 0.00 76 1011.9
20260831205057 73 196 4.0 0.0 0.00 0.00 0.00 77 1011.9
20260831204557 73 205 3.0 0.0 0.00 0.00 0.00 79 1011.9
20260831204100 73 207 4.0 0.0 0.00 0.00 0.00 78 1012.0
20260831203557 73 200 4.0 0.0 0.00 0.00 0.00 80 1012.0
20260831203056 73 262 4.0 0.0 0.00 0.00 0.00 79 1012.0
20260831202555 73 156 4.0 0.0 0.00 0.00 0.00 79 1012.1
20260831202056 73 229 3.0 0.0 0.00 0.00 0.00 78 1012.1
20260831201556 74 223 3.0 0.0 0.00 0.00 0.00 78 1012.1
20260831201057 73 229 3.0 0.0 0.00 0.00 0.00 80 1012.2
20260831200553 73 183 3.0 0.0 0.00 0.00 0.00 79 1012.2
20260831200057 73 262 3.0 0.0 0.00 0.00 0.00 78 1012.2
20260831195553 73 269 3.0 0.0 0.00 0.00 0.00 77 1012.2
20260831195053 73 178 3.0 0.0 0.00 0.00 0.00 79 1012.2
20260831194620 73 183 3.0 0.0 0.00 0.00 0.00 78 1012.2
20260831194052 72 123 3.0 0.0 0.00 0.00 0.00 80 1012.3
20260831193551 72 161 3.0 0.0 0.00 0.00 0.00 80 1012.3
20260831193051 72 211 3.0 0.0 0.00 0.00 0.00 80 1012.3
20260831192554 72 250 3.0 0.0 0.00 0.00 0.00 79 1012.3
20260831192049 72 194 3.0 0.0 0.00 0.00 0.00 80 1012.3
20260831191551 72 233 3.0 0.0 0.00 0.00 0.00 80 1012.3
20260831191050 72 141 3.0 0.0 0.00 0.00 0.00 80 1012.3
20260831190550 72 176 3.0 0.0 0.00 0.00 0.00 80 1012.3
20260831190053 72 177 2.0 0.0 0.00 0.00 0.00 82 1012.3
20260831185550 72 179 3.0 0.0 0.00 0.00 0.00 81 1012.4
20260831185049 72 181 3.0 0.0 0.00 0.00 0.00 82 1012.4
20260831184549 71 107 3.0 0.0 0.00 0.00 0.00 82 1012.4
20260831184049 71 163 3.0 0.0 0.00 0.00 0.00 82 1012.3
20260831183548 72 164 3.0 0.0 0.00 0.00 0.00 82 1012.3
20260831183048 72 172 3.0 0.0 0.00 0.00 0.00 81 1012.3
20260831182550 72 203 2.0 0.0 0.00 0.00 0.00 81 1012.3
20260831182047 72 175 2.0 0.0 0.00 0.00 0.00 83 1012.3
20260831181547 72 194 2.0 0.0 0.00 0.00 0.00 81 1012.3
20260831181047 72 186 2.0 0.0 0.00 0.00 0.00 83 1012.3
20260831180544 72 163 2.0 0.0 0.00 0.00 0.00 83 1012.3
20260831180045 72 171 2.0 0.0 0.00 0.00 0.00 82 1012.3
20260831175544 71 159 2.0 0.0 0.00 0.00 0.00 84 1012.3
20260831175045 71 159 2.0 0.0 0.00 0.00 0.00 85 1012.3
20260831174542 71 209 2.0 0.0 0.00 0.00 0.00 86 1012.3
20260831174040 70 156 2.0 0.0 0.00 0.00 0.00 87 1012.4
20260831173543 70 129 2.0 0.0 0.00 0.00 0.00 88 1012.4
20260831173037 69 160 2.0 0.0 0.00 0.00 0.00 89 1012.4
20260831172537 69 209 2.0 0.0 0.00 0.00 0.00 89 1012.4
20260831172036 68 144 2.0 0.0 0.00 0.00 0.00 91 1012.4
20260831171534 68 169 3.0 0.0 0.00 0.00 0.00 91 1012.4
20260831171033 67 119 2.0 0.0 0.00 0.00 0.00 93 1012.4
20260831170532 67 221 2.0 0.0 0.00 0.00 0.00 94 1012.4
20260831170032 66 253 2.0 0.0 0.00 0.00 0.00 94 1012.4
20260831165532 66 159 1.0 0.0 0.00 0.00 0.00 94 1012.4
20260831165031 65 196 1.0 0.0 0.00 0.00 0.00 95 1012.4
20260831164530 65 196 2.0 0.0 0.00 0.00 0.00 95 1012.4
20260831164030 65 208 2.0 0.0 0.00 0.00 0.00 95 1012.2
20260831163530 65 166 1.0 0.0 0.00 0.00 0.00 95 1012.2
20260831163032 65 183 1.0 0.0 0.00 0.00 0.00 95 1012.2
20260831162530 65 213 0.0 0.0 0.00 0.00 0.00 96 1012.2
20260831162030 64 173 1.0 0.0 0.00 0.00 0.00 95 1012.2
20260831161533 64 161 1.0 0.0 0.00 0.00 0.00 95 1012.2
20260831161029 65 153 1.0 0.0 0.00 0.00 0.00 96 1012.0
20260831160529 64 167 1.0 0.0 0.00 0.00 0.00 96 1012.0
20260831160029 64 168 1.0 0.0 0.00 0.00 0.00 96 1012.0
20260831155529 64 163 1.0 0.0 0.00 0.00 0.00 95 1012.0
20260831155029 65 141 1.0 0.0 0.00 0.00 0.00 96 1012.0
20260831154529 65 192 1.0 0.0 0.00 0.00 0.00 96 1012.0
20260831154031 65 178 1.0 0.0 0.00 0.00 0.00 96 1012.0
20260831153529 65 202 1.0 0.0 0.00 0.00 0.00 96 1012.0
20260831153027 65 196 1.0 0.0 0.00 0.00 0.00 96 1012.0
20260831152527 65 221 2.0 0.0 0.00 0.00 0.00 96 1011.9
20260831152027 65 179 2.0 0.0 0.00 0.00 0.00 96 1011.9
20260831151527 65 192 2.0 0.0 0.00 0.00 0.00 96 1011.9
20260831151026 64 205 1.0 0.0 0.00 0.00 0.00 96 1011.5
20260831150527 64 130 1.0 0.0 0.00 0.00 0.00 96 1011.5
20260831150026 64 150 1.0 0.0 0.00 0.00 0.00 96 1011.5
20260831145526 64 140 1.0 0.0 0.00 0.00 0.00 96 1011.5
20260831145027 64 165 1.0 0.0 0.00 0.00 0.00 96 1011.5
20260831144525 64 200 1.0 0.0 0.00 0.00 0.00 96 1011.5
20260831144025 64 134 1.0 0.0 0.00 0.00 0.00 96 1011.5
20260831143525 64 152 0.0 0.0 0.00 0.00 0.00 96 1011.5
20260831143025 63 167 0.0 0.0 0.00 0.00 0.00 96 1011.5
20260831142524 63 167 0.0 0.0 0.00 0.00 0.00 96 1011.3
20260831142024 63 167 0.0 0.0 0.00 0.00 0.00 96 1011.3
20260831141524 63 167 0.0 0.0 0.00 0.00 0.00 96 1011.3
20260831141024 63 167 0.0 0.0 0.00 0.00 0.00 96 1010.9
20260831140527 63 167 0.0 0.0 0.00 0.00 0.00 95 1010.9
20260831140026 63 188 0.0 0.0 0.00 0.00 0.00 96 1010.9
20260831135523 63 112 0.0 0.0 0.00 0.00 0.00 96 1010.9
20260831135023 63 71 0.0 0.0 0.00 0.00 0.00 96 1010.9
20260831134524 62 71 0.0 0.0 0.00 0.00 0.00 95 1010.9
20260831134022 62 71 0.0 0.0 0.00 0.00 0.00 95 1010.9
20260831133521 62 71 0.0 0.0 0.00 0.00 0.00 95 1010.9
20260831133021 62 71 0.0 0.0 0.00 0.00 0.00 95 1010.9
20260831132521 62 71 0.0 0.0 0.00 0.00 0.00 94 1010.7
20260831132020 62 71 0.0 0.0 0.00 0.00 0.00 94 1010.7
20260831131533 63 71 0.0 0.0 0.00 0.00 0.00 95 1010.7
20260831131023 63 71 0.0 0.0 0.00 0.00 0.00 95 1010.3
20260831130519 63 71 0.0 0.0 0.00 0.00 0.00 95 1010.3
20260831130019 62 71 0.0 0.0 0.00 0.00 0.00 94 1010.3
20260831125519 62 71 0.0 0.0 0.00 0.00 0.00 94 1010.1
20260831125019 63 71 0.0 0.0 0.00 0.00 0.00 95 1010.1
20260831124525 63 71 0.0 0.0 0.00 0.00 0.00 94 1010.1
20260831124019 62 71 0.0 0.0 0.00 0.00 0.00 93 1010.1
20260831123516 63 71 0.0 0.0 0.00 0.00 0.00 94 1010.1
20260831123016 63 71 0.0 0.0 0.00 0.00 0.00 94 1010.1
20260831122516 63 71 0.0 0.0 0.00 0.00 0.00 94 1010.2
20260831122019 63 71 0.0 0.0 0.00 0.00 0.00 94 1010.2
20260831121516 63 71 0.0 0.0 0.00 0.00 0.00 94 1010.2
20260831121017 63 71 0.0 0.0 0.00 0.00 0.00 94 1010.0
20260831120515 63 71 0.0 0.0 0.00 0.00 0.00 94 1010.0
20260831120017 63 71 1.0 0.0 0.00 0.00 0.00 94 1010.0
20260831115516 63 71 1.0 0.0 0.00 0.00 0.00 94 1010.0
20260831115016 63 67 1.0 0.0 0.00 0.00 0.00 94 1010.0
20260831114515 63 80 1.0 0.0 0.00 0.00 0.00 94 1010.0
20260831114018 63 81 1.0 0.0 0.00 0.00 0.00 94 1010.0
20260831113515 63 80 0.0 0.0 0.00 0.00 0.00 93 1010.0
20260831113020 63 80 1.0 0.0 0.00 0.00 0.00 94 1010.0
20260831112518 63 94 0.0 0.0 0.00 0.00 0.00 94 1010.0
20260831112014 63 65 0.0 0.0 0.00 0.00 0.00 94 1010.0
20260831111516 63 65 0.0 0.0 0.00 0.00 0.00 94 1010.0
20260831111014 63 65 1.0 0.0 0.00 0.00 0.00 94 1010.0
20260831110516 63 65 1.0 0.0 0.00 0.00 0.00 94 1010.0
20260831110014 63 65 1.0 0.0 0.00 0.00 0.00 94 1010.0
20260831105515 63 65 1.0 0.0 0.00 0.00 0.00 94 1010.0
20260831105014 63 222 1.0 0.0 0.00 0.00 0.00 94 1010.0
20260831104513 63 222 0.0 0.0 0.00 0.00 0.00 94 1010.0
20260831104012 63 222 0.0 0.0 0.00 0.00 0.00 94 1010.0
20260831103515 63 222 0.0 0.0 0.00 0.00 0.00 94 1010.0
20260831103012 63 222 0.0 0.0 0.00 0.00 0.00 93 1010.0
20260831102511 63 222 0.0 0.0 0.00 0.00 0.00 93 1010.0
20260831102011 63 222 0.0 0.0 0.00 0.00 0.00 93 1010.0
20260831101511 63 222 0.0 0.0 0.00 0.00 0.00 93 1010.0
20260831101011 64 222 0.0 0.0 0.00 0.00 0.00 93 1010.1
20260831100509 64 222 0.0 0.0 0.00 0.00 0.00 93 1010.1
20260831100009 64 222 0.0 0.0 0.00 0.00 0.00 93 1010.1
20260831095509 64 222 0.0 0.0 0.00 0.00 0.00 92 1010.1
20260831095008 64 222 0.0 0.0 0.00 0.00 0.00 92 1010.1
20260831094509 64 222 0.0 0.0 0.00 0.00 0.00 92 1010.1
20260831094008 64 166 1.0 0.0 0.00 0.00 0.00 92 1010.1
20260831093507 64 208 1.0 0.0 0.00 0.00 0.00 91 1010.1
20260831093008 65 132 0.0 0.0 0.00 0.00 0.00 91 1010.1
20260831092509 65 163 1.0 0.0 0.00 0.00 0.00 91 1009.9
20260831092006 65 169 1.0 0.0 0.00 0.00 0.00 91 1009.9
20260831091506 65 168 1.0 0.0 0.00 0.00 0.00 90 1009.9
20260831091005 66 148 0.0 0.0 0.00 0.00 0.00 91 1010.2
20260831090505 66 202 0.0 0.0 0.00 0.00 0.00 90 1010.2
20260831090007 65 202 1.0 0.0 0.00 0.00 0.00 89 1010.2
20260831085503 65 202 1.0 0.0 0.00 0.00 0.00 88 1010.2
20260831085006 65 202 0.0 0.0 0.00 0.00 0.00 86 1010.2
20260831084503 65 69 0.0 0.0 0.00 0.00 0.00 84 1010.2
20260831084002 65 69 0.0 0.0 0.00 0.00 0.00 81 1010.2
20260831083502 65 69 0.0 0.0 0.00 0.00 0.00 79 1010.2
20260831083003 65 69 0.0 0.0 0.00 0.00 0.00 76 1010.2